Weather History for Gwinn, MI

Change the Weather History Date:

Wednesday, February 19, 2014

  Actual Average (KESC) Record (KESC)
Temperature  
Mean Temperature 29 °F -  
Max Temperature 42 °F 29 °F 55 °F (2013)
Min Temperature 16 °F 12 °F -12 °F (1959)
Degree Days  
Heating Degree Days 36    
Moisture  
Dew Point 19 °F    
Average Humidity 77    
Maximum Humidity 96    
Minimum Humidity 36    
Precipitation  
Precipitation 0.00 in - - ()
Sea Level Pressure  
Sea Level Pressure 29.64 in    
Wind  
Wind Speed 4 mph (West)    
Max Wind Speed 14 mph    
Max Gust Speed 21 mph    
Visibility 8 miles    
Events Fog    
Averages and records for this station are not official NWS values.
T = Trace of Precipitation, MM = Missing Value Source: NWS Daily Summary

Daily Weather History Graph

Daily Weather History Graph

Search for Another Location

Airport:

Trip Planner

Search our weather history database for the weather conditions in past years. The results will help you decide how hot, cold, wet, or windy it might be!

Date:

Astronomy

Feb. 19, 2014 Rise Set
Actual Time 7:46 AM EST 6:21 PM EST
Civil Twilight 7:15 AM EST 6:51 PM EST
Nautical Twilight 6:40 AM EST 7:26 PM EST
Astronomical Twilight 6:05 AM EST 8:01 PM EST
Moon 11:33 PM EST (2/19) 9:34 AM EST (2/19)
Length of Visible Light 11h 36m
Length of Day
10h 34m
Waning Gibbous, 80% of the Moon is Illuminated
Feb 19
Waning Gibbous
Feb 22
Last Quarter
Mar 1
New
Mar 8
First Quarter
Mar 16
Full

Hourly Weather History & Observations

Time (EST) Temp. Windchill Dew Point Humidity Pressure Visibility Wind Dir Wind Speed Gust Speed Precip Events Conditions
12:16 AM 21.2 °F - 19.9 °F 95% 29.54 in 0.2 mi Calm Calm - N/A Fog Light Freezing Fog
12:36 AM 20.7 °F 15.8 °F 19.0 °F 93% 29.54 in 0.8 mi West 3.5 mph - N/A   Mostly Cloudy
12:57 AM 20.1 °F 15.2 °F 18.5 °F 93% 29.54 in 1.8 mi West 3.5 mph - N/A   Mist
1:16 AM 20.8 °F 16.0 °F 19.4 °F 94% 29.54 in 4.0 mi WNW 3.5 mph - N/A   Clear
1:37 AM 19.8 °F 13.2 °F 18.1 °F 93% 29.54 in 5.0 mi NW 4.6 mph - N/A   Clear
1:56 AM 20.8 °F 14.4 °F 19.4 °F 94% 29.55 in 5.0 mi WNW 4.6 mph - N/A   Clear
2:16 AM 19.2 °F - 17.2 °F 92% 29.55 in 5.0 mi Calm Calm - N/A   Clear
2:37 AM 20.3 °F - 18.9 °F 94% 29.55 in 4.0 mi Calm Calm - N/A   Clear
2:56 AM 20.7 °F - 19.0 °F 93% 29.55 in 4.0 mi Calm Calm - N/A   Clear
3:17 AM 17.6 °F - 15.8 °F 93% 29.55 in 3.0 mi Calm Calm - N/A   Clear
3:36 AM 16.7 °F 9.6 °F 14.7 °F 92% 29.55 in 4.0 mi WNW 4.6 mph - N/A   Clear
3:57 AM 21.7 °F 14.3 °F 20.5 °F 95% 29.55 in 7.0 mi WNW 5.8 mph - N/A   Clear
4:16 AM 22.1 °F 15.9 °F 20.8 °F 95% 29.55 in 7.0 mi WNW 4.6 mph - N/A   Clear
4:37 AM 22.1 °F 15.9 °F 21.0 °F 96% 29.55 in 7.0 mi WNW 4.6 mph - N/A   Clear
4:57 AM 22.6 °F 16.5 °F 21.2 °F 94% 29.55 in 7.0 mi WNW 4.6 mph - N/A   Clear
5:16 AM 22.5 °F 16.3 °F 21.2 °F 95% 29.55 in 7.0 mi West 4.6 mph - N/A   Clear
5:37 AM 22.5 °F 14.1 °F 21.2 °F 95% 29.56 in 7.0 mi West 6.9 mph - N/A   Clear
5:56 AM 22.6 °F 15.3 °F 21.2 °F 94% 29.57 in 10.0 mi West 5.8 mph - N/A   Clear
6:50 AM 21.2 °F - 19.4 °F 93% 29.58 in 10.0 mi Calm Calm - N/A   Clear
7:50 AM 21.2 °F - 19.4 °F 93% 29.59 in 10.0 mi Calm Calm - N/A   Clear
8:50 AM 21.2 °F 12.6 °F 19.4 °F 93% 29.62 in 10.0 mi West 6.9 mph - N/A   Clear
9:55 AM 26.6 °F 17.5 °F 23.0 °F 86% 29.64 in 10.0 mi WNW 9.2 mph - N/A   Clear
10:50 AM 32.0 °F 24.8 °F 21.2 °F 64% 29.65 in 10.0 mi West 8.1 mph - N/A   Clear
11:50 AM 35.6 °F 27.5 °F 21.2 °F 56% 29.67 in 10.0 mi West 11.5 mph 20.7 mph N/A   Clear
12:50 PM 37.4 °F 29.3 °F 21.2 °F 52% 29.68 in 10.0 mi West 12.7 mph 20.7 mph N/A   Clear
1:50 PM 39.2 °F 31.2 °F 21.2 °F 49% 29.69 in 10.0 mi WNW 13.8 mph - N/A   Clear
2:50 PM 41.0 °F 35.2 °F 17.6 °F 39% 29.68 in 10.0 mi West 9.2 mph - N/A   Clear
3:50 PM 42.8 °F 36.6 °F 17.6 °F 36% 29.70 in 10.0 mi West 11.5 mph 19.6 mph N/A   Clear
4:50 PM 41.0 °F 33.5 °F 17.6 °F 39% 29.73 in 10.0 mi WSW 13.8 mph - N/A   Clear
5:45 PM 39.2 °F 33.6 °F 15.8 °F 39% 29.75 in 10.0 mi WSW 8.1 mph - N/A   Clear
6:49 PM 35.6 °F - 15.8 °F 44% 29.77 in 10.0 mi Calm Calm - N/A   Clear
8:55 PM 24.8 °F - 15.8 °F 69% 29.80 in 10.0 mi Calm Calm - N/A   Clear
9:45 PM 21.2 °F - 15.8 °F 80% 29.81 in 10.0 mi Calm Calm - N/A   Clear
10:17 PM 25.5 °F 21.3 °F 15.8 °F 67% 29.81 in 10.0 mi SW 3.5 mph - N/A   Clear
10:36 PM 27.1 °F - 15.6 °F 62% 29.81 in 10.0 mi Calm Calm - N/A   Clear
10:57 PM 28.9 °F 25.2 °F 16.2 °F 59% 29.81 in 10.0 mi South 3.5 mph - N/A   Clear
11:16 PM 23.0 °F - 14.7 °F 71% 29.81 in 10.0 mi Calm Calm - N/A   Scattered Clouds
11:36 PM 24.4 °F 20.1 °F 15.4 °F 69% 29.82 in 10.0 mi SW 3.5 mph - N/A   Overcast
11:57 PM 26.8 °F 21.4 °F 17.2 °F 67% 29.82 in 10.0 mi SSW 4.6 mph - N/A   Overcast